Regional Weather Roundup
Issued by NWS

Home | Current Version | Previous Version | Graphics & Text | Print | Product List | Glossary On
Versions: 1 2 3 4 5 6 7 8 9 10 11 12 13 14 15 16 17 18 19 20 21 22 23 24 25 26 27 28 29 30 31 32 33 34 35 36 37 38 39 40 41 42 43 44 45 46 47 48 49 50
000
ASUS43 KIND 222109
RWRIN

WEATHER ROUNDUP FOR INDIANA
NATIONAL WEATHER SERVICE INDIANAPOLIS IN
400 PM EST WED NOV 22 2017

NOTE: "FAIR" INDICATES FEW OR NO CLOUDS BELOW 12,000 FEET WITH NO
SIGNIFICANT WEATHER AND/OR OBSTRUCTIONS TO VISIBILITY.

* - STATION DOES NOT REPORT WEATHER SUCH AS PRECIPITATION OR FOG.

+ - STATION NOT QUALITY CONTROLLED BY THE NATIONAL WEATHER SERVICE.
    USE DATA WITH CAUTION...ESPECIALLY DEWPOINT AND RELATIVE
    HUMIDITY OBSERVATIONS.

INZ001>003-010>013-019-020-222200-
NORTHWEST INDIANA

CITY           SKY/WX    TMP DP  RH WIND       PRES   REMARKS
GARY /AIRPORT/ MOSUNNY   36  10  35 W7        30.28F WCI  30
KNOX *+        SUNNY     36  21  55 SW5       30.27S WCI  32
LA PORTE +     SUNNY     34  22  61 CALM      30.26F
MICHIGAN CITY+ SUNNY     34  23  64 CALM      30.27F
MONTICELLO +   MOSUNNY   36  20  52 W7        30.28S WCI  30
RENSSELAER +   SUNNY     36  10  35 W5        30.28F WCI  32
VALPARAISO     SUNNY     37  18  46 W5        30.26F WCI  33

$$

LMZ046-743>745-222200-
SOUTHERN LAKE MICHIGAN

STATION/POSITION TIME  TEMP    WIND        PRES    WAVE
                       AIR SEA DIR/SP/G            HT
                 (UTC) (F)     (DEG/KT/KT) (MB)    (FT)
BURNS HARBOR     2040   34     290/  4/  6 1025.4F
MICHIGAN CITY    2040   33     260/  5/  7   N/A

$$

INZ004-005-014>016-021>024-222200-
NORTH CENTRAL INDIANA

CITY           SKY/WX    TMP DP  RH WIND       PRES   REMARKS
ELKHART        PTSUNNY   37  21  52 W12       30.25F WCI  30
GOSHEN         MOSUNNY   35  19  52 W3        30.25F
LOGANSPORT +   PTSUNNY   36  23  60 W6        30.28S WCI  31
PERU/GRISSOM   MOSUNNY   37  23  57 W7        30.26F WCI  31
ROCHESTER +    MOSUNNY   36  23  60 W3        30.27S
SOUTH BEND     PTSUNNY   33  23  66 W8        30.27F WCI  26
WARSAW +       PTSUNNY   34  21  60 NW6       30.26S WCI  29

$$

INZ006>009-017-018-025>027-222200-
NORTHEAST INDIANA

CITY           SKY/WX    TMP DP  RH WIND       PRES   REMARKS
AUBURN +       SUNNY     34  19  55 NW6       30.26F WCI  29
FORT WAYNE     MOSUNNY   37  22  54 N6        30.27F WCI  32
HUNTINGTON +   CLOUDY    36  21  55 W6        30.27S WCI  31
KENDALLVILLE + PTSUNNY   33  21  60 NW3       30.25F

$$

INZ028-029-035-036-043>045-051>053-222200-
WEST CENTRAL INDIANA

CITY           SKY/WX    TMP DP  RH WIND       PRES   REMARKS
CRAWFORDSVL +  SUNNY     34  22  62 W3        30.24S
GREENCASTLE +  SUNNY     36  23  60 CALM      30.28F
LAFAYETTE      SUNNY     36  22  56 NW6       30.28F WCI  31
TERRE HAUTE    SUNNY     38  21  50 W5        30.29F WCI  34

$$

INZ030>032-037>040-046>048-054>057-064-065-222200-
CENTRAL INDIANA

CITY           SKY/WX    TMP DP  RH WIND       PRES   REMARKS
ANDERSON       MOSUNNY  N/A N/A N/A CALM      30.25
CP ATTERBURY + SUNNY     39  23  52 N6        30.28S WCI  35
COLUMBUS       SUNNY     37  19  48 CALM      30.28
FISHERS *+     SUNNY     36  25  64 CALM      30.28S
FRANKFORT +    MOSUNNY   38  25  60 N5        30.28F WCI  34
GREENWOOD *+   SUNNY     41  24  49 NW5       30.28R
INDIANAPOLIS   MOSUNNY   38  22  52 NW7       30.27F WCI  33
-EAGLE CREEK   MOSUNNY   38  22  52 N5        30.26F WCI  34
KOKOMO +       MOSUNNY   36  22  56 VRB5      30.28F WCI  32
MARION +       SUNNY     34  24  67 W3        30.27F
MT COMFORT *+  SUNNY     37  27  65 N5        30.27S WCI  34
SHELBYVILLE    SUNNY     40  20  44 NW3       30.27R
ZIONSVILLE +   SUNNY     34  23  63 N7        30.28S WCI  28

$$

INZ033-034-041-042-049-050-058-059-222200-
EAST CENTRAL INDIANA

CITY           SKY/WX    TMP DP  RH WIND       PRES   REMARKS
MUNCIE         CLOUDY    38  22  52 W5        30.26S WCI  34
RICHMOND +     SUNNY     36  23  60 CALM      30.26R

$$

INZ060-061-067>069-081>083-085>088-222200-
SOUTHWEST INDIANA

CITY           SKY/WX    TMP DP  RH WIND       PRES   REMARKS
EVANSVILLE     SUNNY     41  23  48 N6        30.29F
HUNTINGBURG +  SUNNY     40  23  50 N5        30.28F WCI  37
WASHINGTON +   SUNNY     39  19  44 N6        30.29S WCI  35

$$

INZ062-063-066-070>080-084-089>092-222200-
SOUTH CENTRAL AND SOUTHEAST INDIANA

CITY           SKY/WX    TMP DP  RH WIND       PRES   REMARKS
BEDFORD +      SUNNY     39  19  45 NE3       30.26S
BLOOMINGTON    SUNNY     40  22  48 N7        30.27S WCI  35
MADISON *+     SUNNY     41  23  48 CALM      30.28S
NORTH VERNON + SUNNY     37  21  52 N3        30.28S
SEYMOUR +      SUNNY     41  23  48 NE3       30.28S

$$




USA.gov is the U.S. government's official web portal to all federal, state and local government web resources and services.